STARLINK-11262, 62009

Orbit data source: Space-Track

STARLINK-11262, 62009 is a payload satellite owned by SpaceX/Seattle (US) in LEO that was launched on Mon, 18 Nov 2024 UTC via an FALCON 9 launch vehicle from the Air Force Western Test Range (AFWTR). Payload-class satellites include a variety of spacecraft equipped with specific instruments for various scientific and technological missions. These include communications satellites like Starlink; space stations such as the ISS; scientific satellites like the Hubble; Earth observation satellites from companies like Planet Labs, Umbra, and HawkEye 360; GPS; miniature CubeSats for education and research; and military/defense satellites.

Loading next visibility...
Identifier
62009, 2024-213B
Orbit
LEO
Country
Flag of USUS
Related business
Manufacturer
SpaceX/Seattle
Mission
Operational Commercial Communications
Bus & Motor
STARLINK V2MD, Unknown motor
Mass
960 kg wet, ~910 kg dry
Launch date (UTC)
2024-11-18 (2 years ago)
Launch vehicle
FALCON 9
Launch site
Air Force Western Test Range (AFWTR)
Object type
Payload
Rocket body
Debris
Shape & HBR
Box + 2 Pan, 18.1 m
Radar Cross Section
36.964 m², Large (>1 m²)

Expand to show TLE details & history
Last TLE update: 4 hours ago

TLE from 4 hours ago
0 STARLINK-11262
1 62009U 24213B   26257.33335648 -.00049495  00000-0 -40590-3 0  9990
2 62009  53.1590 191.6006 0001210  84.3446 144.3618 15.69722044  5897
Epoch: 2026-09-14T08:00Z
TLE epoch observation values (Epoch: 2026-09-14T08:00:01.999Z)
Latitude
-37.17904°
Longitude
-67.3159°
Altitude
372.36 km
Speed
7.686 km/s
True Right ascension
03h 04m 01s
True Declination
-37° 00' 15"
Sunlit
Object was in full shadow at epoch
Visualization orbit readout
Latitude
Unknown
Longitude
Unknown
Altitude
Unknown
Speed
Unknown
Apparent Right ascension
Unknown
Apparent Declination
Unknown
Sunlit
N/A
Visualization observer readout
Local Sidereal Time
04:36:00
Azimuth
Unknown
Elevation
Unknown
Doppler factor
Unknown
Orbital elements
Apogee altitude
360.768 km
Perigee altitude
359.138 km
Semi-major axis
6,738.09 km
Eccentricity
0.00012
Inclination
53.159°
RAAN
191.6006°
Arg. of periapsis
84.3446°
True anomaly
144.36988°
Mean anomaly
144.3618°
Eccentric anomaly
144.36584°
Mean motion
3.92408 °/min
Orbital period
91.74 mins
BSTAR
-0.0004059
Loading maneuver chart data...
Computing Atmospheric mass density...
Loading historical data...
Loading historical data...
Loading historical data...
Loading historical data...
Loading historical data...
Loading historical data...
Loading historical data...

Documentation

Showing up to 5 results
|